When you browse on this site, cookies collect data to enhance your experience and personalize the content and advertising you see.
Visit our Privacy Policy to learn more. By continuing to use the site, you agree to this use of cookies and data.
  • In Portugal
  • List of Countries
  • For 7 days
  • Water Temperature
  • Satellite Maps
  • Weather Map
  • Weather Widgets
  • user-avatar
    Login

    Hourly Weather Canillo

    Today, 22 May, Wednesday

    Time Temperature Precipitation Wind Pressure Humidity
    00:00 +5°C° 0 mm 1 mps 617 mmHg 95%
    01:00 +4°C° 0 mm 1 mps 617 mmHg 95%
    02:00 +4°C° 0 mm 1 mps 617 mmHg 95%
    03:00 +4°C° 0 mm 1 mps 617 mmHg 95%
    04:00 +4°C° 0 mm 1 mps 617 mmHg 92%
    05:00 +5°C° 0 mm 1 mps 617 mmHg 90%
    06:00 +6°C° 0 mm 1 mps 618 mmHg 87%
    07:00 +8°C° 0 mm 1 mps 619 mmHg 76%
    08:00 +10°C° 0 mm 1 mps 620 mmHg 65%
    09:00 +13°C° 0 mm 1 mps 621 mmHg 53%
    10:00 +13°C° 0 mm 1 mps 621 mmHg 51%
    11:00 +14°C° 0 mm 1 mps 621 mmHg 49%
    12:00 +14°C° 0 mm 1 mps 621 mmHg 47%
    13:00 +14°C° 0.2 mm 1 mps 621 mmHg 52%
    14:00 +13°C° 0.2 mm 1 mps 620 mmHg 58%
    15:00 +12°C° 0.2 mm 1 mps 619 mmHg 63%
    16:00 +11°C° 0.2 mm 1 mps 619 mmHg 67%
    17:00 +11°C° 0.2 mm 1 mps 619 mmHg 70%
    18:00 +11°C° 0.2 mm 1 mps 619 mmHg 74%
    19:00 +9°C° 0 mm 1 mps 619 mmHg 79%
    20:00 +8°C° 0 mm 1 mps 618 mmHg 85%
    21:00 +6°C° 0 mm 1 mps 618 mmHg 90%
    22:00 +6°C° 0 mm 1 mps 618 mmHg 90%
    23:00 +5°C° 0 mm 1 mps 618 mmHg 90%

    Tomorrow, 23 May, Thursday

    Time Temperature Precipitation Wind Pressure Humidity
    00:00 +5°C° 0 mm 1 mps 618 mmHg 90%
    01:00 +5°C° 0 mm 1 mps 617 mmHg 88%
    02:00 +5°C° 0 mm 1 mps 617 mmHg 86%
    03:00 +5°C° 0 mm 1 mps 617 mmHg 84%
    04:00 +6°C° 0 mm 1 mps 618 mmHg 80%
    05:00 +7°C° 0 mm 1 mps 618 mmHg 77%
    06:00 +8°C° 0 mm 1 mps 619 mmHg 73%
    07:00 +11°C° 0 mm 1 mps 620 mmHg 63%
    08:00 +13°C° 0 mm 1 mps 621 mmHg 54%
    09:00 +15°C° 0 mm 1 mps 622 mmHg 44%
    10:00 +18°C° 0 mm 1 mps 622 mmHg 42%
    11:00 +19°C° 0 mm 1 mps 622 mmHg 39%
    12:00 +20°C° 0 mm 1 mps 623 mmHg 36%
    13:00 +18°C° 0.1 mm 1 mps 622 mmHg 43%
    14:00 +16°C° 0.1 mm 1 mps 621 mmHg 50%
    15:00 +14°C° 0.1 mm 1 mps 620 mmHg 57%
    16:00 +13°C° 0.5 mm 1 mps 619 mmHg 65%
    17:00 +12°C° 0.5 mm 1 mps 619 mmHg 73%
    18:00 +11°C° 0.5 mm 1 mps 619 mmHg 82%
    19:00 +10°C° 1.2 mm 1 mps 619 mmHg 85%
    20:00 +10°C° 1.2 mm 1 mps 619 mmHg 88%
    21:00 +9°C° 1.2 mm 1 mps 619 mmHg 92%
    22:00 +9°C° 0.5 mm 1 mps 618 mmHg 92%
    23:00 +8°C° 0.5 mm 1 mps 618 mmHg 92%

    Day after tomorrow, 24 May, Friday

    Time Temperature Precipitation Wind Pressure Humidity
    00:00 +8°C° 0.5 mm 1 mps 618 mmHg 92%
    01:00 +8°C° 0.5 mm 1 mps 618 mmHg 93%
    02:00 +7°C° 0.5 mm 0 mps 618 mmHg 93%
    03:00 +7°C° 0.5 mm 0 mps 617 mmHg 93%
    04:00 +7°C° 0.6 mm 0 mps 617 mmHg 92%
    05:00 +7°C° 0.6 mm 0 mps 618 mmHg 91%
    06:00 +7°C° 0.6 mm 0 mps 618 mmHg 90%
    07:00 +9°C° 0.4 mm 1 mps 618 mmHg 87%
    08:00 +10°C° 0.4 mm 1 mps 619 mmHg 83%
    09:00 +11°C° 0.4 mm 1 mps 619 mmHg 80%
    10:00 +10°C° 2 mm 1 mps 619 mmHg 84%
    11:00 +9°C° 2 mm 1 mps 618 mmHg 88%
    12:00 +9°C° 2 mm 1 mps 618 mmHg 92%
    13:00 +8°C° 1.6 mm 1 mps 618 mmHg 92%
    14:00 +8°C° 1.6 mm 1 mps 617 mmHg 93%
    15:00 +7°C° 1.6 mm 2 mps 617 mmHg 94%
    16:00 +7°C° 1.2 mm 2 mps 617 mmHg 94%
    17:00 +7°C° 1.2 mm 2 mps 617 mmHg 95%
    18:00 +6°C° 1.2 mm 2 mps 617 mmHg 95%
    19:00 +6°C° 0.3 mm 2 mps 617 mmHg 95%
    20:00 +6°C° 0.3 mm 2 mps 617 mmHg 95%
    21:00 +5°C° 0.3 mm 2 mps 617 mmHg 95%
    22:00 +5°C° 0.1 mm 2 mps 617 mmHg 95%
    23:00 +5°C° 0.1 mm 2 mps 617 mmHg 95%

    25 May, Saturday

    Time Temperature Precipitation Wind Pressure Humidity
    00:00 +5°C° 0.1 mm 2 mps 617 mmHg 95%
    01:00 +5°C° 0.2 mm 2 mps 617 mmHg 95%
    02:00 +5°C° 0.2 mm 2 mps 617 mmHg 96%
    03:00 +5°C° 0.2 mm 2 mps 617 mmHg 96%
    04:00 +6°C° 0.5 mm 2 mps 617 mmHg 96%
    05:00 +6°C° 0.5 mm 2 mps 617 mmHg 96%
    06:00 +6°C° 0.5 mm 2 mps 617 mmHg 96%
    07:00 +6°C° 1.2 mm 2 mps 618 mmHg 95%
    08:00 +6°C° 1.2 mm 2 mps 618 mmHg 95%
    09:00 +6°C° 1.2 mm 2 mps 618 mmHg 94%
    10:00 +6°C° 0.8 mm 2 mps 618 mmHg 93%
    11:00 +7°C° 0.8 mm 2 mps 618 mmHg 91%
    12:00 +7°C° 0.8 mm 2 mps 618 mmHg 90%
    13:00 +7°C° 0.4 mm 3 mps 618 mmHg 87%
    14:00 +8°C° 0.4 mm 3 mps 618 mmHg 84%
    15:00 +9°C° 0.4 mm 3 mps 618 mmHg 81%
    16:00 +8°C° 0.2 mm 3 mps 618 mmHg 83%
    17:00 +8°C° 0.2 mm 3 mps 618 mmHg 85%
    18:00 +7°C° 0.2 mm 3 mps 618 mmHg 87%
    19:00 +5°C° 0 mm 3 mps 618 mmHg 89%
    20:00 +6°C° 0 mm 2 mps 618 mmHg 91%
    21:00 +5°C° 0 mm 2 mps 619 mmHg 93%
    22:00 +5°C° 0 mm 2 mps 619 mmHg 93%
    23:00 +4°C° 0 mm 2 mps 618 mmHg 94%

    26 May, Sunday

    Time Temperature Precipitation Wind Pressure Humidity
    00:00 +4°C° 0 mm 2 mps 618 mmHg 94%
    01:00 +4°C° 0 mm 2 mps 618 mmHg 94%
    02:00 +4°C° 0 mm 2 mps 618 mmHg 93%
    03:00 +5°C° 0 mm 2 mps 618 mmHg 93%
    04:00 +5°C° 0 mm 2 mps 618 mmHg 91%
    05:00 +5°C° 0 mm 2 mps 619 mmHg 90%
    06:00 +6°C° 0 mm 2 mps 619 mmHg 88%
    07:00 +7°C° 0 mm 3 mps 619 mmHg 84%
    08:00 +8°C° 0 mm 3 mps 620 mmHg 80%
    09:00 +9°C° 0 mm 3 mps 620 mmHg 75%
    10:00 +10°C° 0 mm 3 mps 621 mmHg 70%
    11:00 +11°C° 0 mm 3 mps 621 mmHg 64%
    12:00 +13°C° 0 mm 3 mps 621 mmHg 58%
    13:00 +13°C° 0 mm 3 mps 621 mmHg 59%
    14:00 +13°C° 0 mm 4 mps 621 mmHg 60%
    15:00 +13°C° 0 mm 4 mps 620 mmHg 61%
    16:00 +12°C° 0 mm 3 mps 620 mmHg 65%
    17:00 +11°C° 0 mm 3 mps 619 mmHg 70%
    18:00 +10°C° 0 mm 2 mps 619 mmHg 74%
    19:00 +8°C° 0 mm 2 mps 619 mmHg 80%
    20:00 +7°C° 0 mm 2 mps 619 mmHg 86%
    21:00 +5°C° 0 mm 2 mps 619 mmHg 92%
    22:00 +6°C° 0.1 mm 2 mps 619 mmHg 92%
    23:00 +6°C° 0.1 mm 2 mps 619 mmHg 93%

    27 May, Monday

    Time Temperature Precipitation Wind Pressure Humidity
    00:00 +7°C° 0.1 mm 3 mps 619 mmHg 93%
    01:00 +7°C° 0 mm 3 mps 618 mmHg 93%
    02:00 +7°C° 0 mm 3 mps 618 mmHg 92%
    03:00 +7°C° 0 mm 2 mps 618 mmHg 92%
    04:00 +7°C° 0 mm 2 mps 618 mmHg 91%
    05:00 +7°C° 0 mm 2 mps 618 mmHg 89%
    06:00 +7°C° 0 mm 2 mps 618 mmHg 88%
    07:00 +8°C° 0 mm 2 mps 619 mmHg 81%
    08:00 +10°C° 0 mm 2 mps 620 mmHg 74%
    09:00 +12°C° 0 mm 2 mps 620 mmHg 68%
    10:00 +13°C° 0 mm 3 mps 620 mmHg 61%
    11:00 +14°C° 0 mm 3 mps 621 mmHg 55%
    12:00 +17°C° 0 mm 3 mps 621 mmHg 49%
    13:00 +16°C° 0 mm 3 mps 621 mmHg 52%
    14:00 +16°C° 0 mm 3 mps 621 mmHg 55%
    15:00 +16°C° 0 mm 2 mps 620 mmHg 57%
    16:00 +14°C° 0 mm 2 mps 620 mmHg 64%
    17:00 +13°C° 0 mm 2 mps 619 mmHg 71%
    18:00 +12°C° 0 mm 2 mps 618 mmHg 78%
    19:00 +9°C° 0 mm 2 mps 618 mmHg 83%
    20:00 +8°C° 0 mm 2 mps 618 mmHg 88%
    21:00 +6°C° 0 mm 2 mps 618 mmHg 94%
    22:00 +6°C° 0 mm 2 mps 617 mmHg 92%
    23:00 +5°C° 0 mm 2 mps 617 mmHg 91%
    Show more